Temp
24 24 24 24 24 25 25 25 24 24 24 24 24 24 24 24 24 24 24 24 24 24 24 24 24 24 24 25 25 25 24 24 25 25 25 25 25 25 25 25 25 26
24 24 24 24 24 25 25 25 25 25 24 24 24 24 24 24 24 24 24 24 24 24 24 24 24 24 24 25 25 24 24 25 25 25 25 25 25 25 25 25 25 26
24 24 24 24 24 24 25 25 25 25 25 25 25 24 24 24 24 24 24 24 24 24 24 24 24 24 24 25 25 24 24 25 25 25 25 25 25 25 25 25 25 25
24 24 24 24 24 24 24 25 25 25 25 25 25 25 25 24 24 24 24 24 24 24 24 24 24 24 24 24 25 24 24 24 24 25 24 25 25 25 25 25 25 25
24 24 24 24 24 24 24 24 25 25 25 25 25 25 24 24 24 24 24 24 24 24 24 24 24 24 24 24 25 25 25 24 24 24 24 25 25 25 25 25 25 25
23 23 24 24 24 24 24 24 24 25 25 25 25 25 24 24 24 24 24 24 24 24 24 24 24 24 24 24 25 25 25 25 24 24 24 24 25 25 25 25 25 25
23 23 23 23 23 23 23 24 24 24 24 24 25 25 25 25 25 24 24 24 24 24 24 24 24 24 24 24 24 25 25 25 25 24 24 24 25 25 25 25 25 25
22 23 23 23 23 23 23 23 23 23 24 24 24 24 25 25 25 25 25 24 24 24 24 24 24 25 25 24 24 24 25 25 25 25 24 24 24 25 25 25 25 25
22 22 23 23 23 23 23 23 23 23 23 24 24 24 24 24 25 25 25 25 24 24 24 24 24 24 25 25 25 24 24 25 24 25 25 25 24 24 25 25 25 25
22 22 22 22 22 23 23 23 23 23 23 23 23 24 24 24 24 24 24 24 24 24 24 24 24 24 25 25 25 25 25 25 24 24 25 25 25 25 25 25 25 25
22 22 22 22 22 22 22 23 22 22 23 23 23 23 24 24 24 24 24 24 24 24 24 24 24 25 25 25 25 25 25 25 25 24 24 25 25 25 25 24 24 25
22 22 22 22 22 22 23 23 23 23 23 23 23 23 23 24 24 24 24 24 24 24 24 24 24 24 25 25 25 24 24 25 25 25 24 25 25 25 25 24 24 25
23 22 22 22 22 23 23 23 23 23 23 23 23 23 23 23 23 23 23 24 24 24 24 24 24 24 24 24 24 24 24 24 24 24 24 24 25 25 24 24 24 24
23 23 23 23 23 23 23 23 23 23 23 23 23 23 23 23 23 23 23 23 23 24 24 24 24 24 24 24 24 24 24 24 24 24 24 24 24 25 24 24 24 24
23 23 24 23 23 23 23 23 23 23 23 23 23 23 23 23 23 23 23 23 23 23 23 23 23 23 23 23 23 23 23 24 24 23 24 24 24 24 24 24 24 24
24 23 24 24 24 24 24 24 24 24 23 23 23 23 23 23 23 23 23 23 23 23 22 22 22 22 22 23 23 23 23 23 23 23 23 23 23 24 24 24 24 24
24 24 24 24 24 24 24 24 24 24 23 23 23 23 23 23 23 23 23 22 22 22 22 22 22 22 22 22 22 22 22 22 22 23 23 22 23 23 23 24 24 24
24 24 24 24 24 24 24 24 24 24 24 23 23 23 23 23 22 22 22 22 22 22 21 21 21 21 22 22 22 22 21 21 21 22 22 22 22 23 22 23 24 24
24 24 24 24 24 24 24 24 24 24 24 23 23 23 23 23 22 22 22 22 22 21 21 21 21 21 21 21 21 21 21 20 20 21 21 21 22 23 23 23 24 24
24 24 24 24 24 24 24 24 24 23 23 23 23 23 23 23 22 22 22 22 22 21 21 21 21 21 21 21 20 21 20 20 19 20 21 21 22 22 22 23 23 24
24 24 24 24 24 24 24 24 24 23 23 23 23 23 23 23 22 22 22 22 21 21 21 20 20 20 20 20 20 20 20 20 19 19 20 21 22 22 22 22 23 23
24 24 24 24 24 24 24 23 23 23 23 23 23 23 23 23 22 22 22 21 21 21 20 20 20 20 20 19 19 20 20 19 19 19 19 20 21 21 21 22 22 22
24 24 24 24 23 23 23 23 23 23 23 23 23 23 23 22 22 22 22 21 21 21 20 19 19 20 19 19 19 19 19 19 19 19 19 19 20 20 20 21 21 22
24 24 24 24 23 23 23 23 23 23 23 23 23 23 23 22 22 22 21 21 21 20 20 19 19 19 19 19 20 19 19 19 19 19 19 19 19 20 20 21 21 22
24 24 24 24 23 23 23 23 23 23 23 23 23 23 22 22 22 21 21 21 20 20 20 19 19 19 19 19 20 20 19 19 19 19 19 19 20 19 20 21 21 21
24 24 24 24 23 23 23 23 23 23 23 23 23 22 22 22 21 21 20 20 20 20 19 19 19 19 19 19 19 20 20 19 19 19 19 19 19 20 20 21 21 21
Height
797 798 799 800 801 801 802 803 804 806 807 809 811 812 813 814 815 817 818 819 821 822 823 825 826 827 829 830 830 831 831 832 833 834 834 835 836 837 837 838 838 838
796 797 798 800 800 801 802 803 803 804 806 807 809 811 812 813 814 815 817 818 820 821 822 823 824 825 827 827 828 829 830 830 831 832 833 833 834 835 836 837 837 838
794 795 796 798 799 801 801 802 803 804 805 806 807 809 810 812 813 814 816 817 818 819 820 821 822 823 824 825 826 827 828 829 829 830 831 832 833 834 835 836 836 836
792 794 795 796 798 800 801 802 803 803 804 805 805 807 808 810 812 813 814 815 816 817 818 819 820 821 823 823 824 825 826 827 828 828 829 830 831 832 833 834 835 835
791 793 794 795 796 798 800 801 802 802 803 804 805 806 807 809 810 811 813 814 815 816 816 817 818 819 821 822 822 823 824 825 826 827 828 828 829 831 831 833 833 834
790 791 792 794 795 796 798 799 800 801 802 803 804 805 806 807 808 809 811 812 813 814 815 815 816 817 818 820 820 821 822 823 824 825 826 827 828 829 830 831 831 832
789 790 791 793 794 795 796 797 799 800 801 802 803 804 805 805 807 808 809 810 811 812 813 814 814 815 816 817 818 819 820 821 822 823 824 825 826 827 828 829 830 830
788 789 790 792 792 793 794 795 797 798 800 801 801 802 803 803 805 806 807 808 809 810 812 812 813 813 814 815 816 817 818 819 820 821 822 823 824 825 826 827 828 828
787 788 789 791 791 792 793 794 795 796 798 799 799 800 801 801 802 804 805 806 807 808 809 810 811 812 812 813 813 814 816 816 817 818 819 820 821 822 823 825 826 826
785 787 788 789 790 791 792 792 794 795 796 797 798 799 799 799 800 801 803 804 804 806 807 808 809 809 810 810 811 812 812 813 815 815 816 817 818 819 821 822 823 823
783 784 786 787 788 789 790 791 792 793 794 795 796 797 797 798 798 799 800 801 802 803 804 805 806 807 807 807 808 808 809 810 811 812 813 814 815 817 818 819 820 821
780 782 783 784 786 787 788 789 790 791 792 793 794 795 795 795 796 797 798 798 799 800 801 802 803 804 804 804 804 805 806 807 808 809 810 811 812 814 815 816 817 818
778 780 781 783 784 785 787 788 789 790 790 791 792 793 793 793 793 794 795 796 797 797 798 799 800 800 801 801 801 802 803 804 805 806 807 808 809 810 812 813 814 815
776 778 779 781 782 784 785 786 787 788 788 789 790 790 791 791 791 792 792 793 794 794 795 796 796 797 798 798 798 799 800 801 802 803 804 805 805 806 808 810 811 812
775 777 778 779 781 782 783 784 785 786 786 787 788 788 788 789 789 789 790 790 791 791 792 793 793 793 793 794 795 796 797 798 799 800 801 802 803 803 804 806 808 809
774 775 777 778 779 780 781 782 783 783 784 785 785 786 786 787 787 787 787 788 788 788 789 789 789 789 789 790 791 792 794 795 795 796 797 799 800 801 801 803 804 805
772 774 775 777 777 778 779 780 781 781 782 783 783 784 785 785 785 785 784 785 785 785 786 786 786 785 785 786 787 788 790 791 792 793 793 794 796 796 797 799 800 802
771 772 774 775 775 776 777 778 779 780 780 781 781 782 782 782 782 782 782 782 782 782 782 782 781 781 781 782 782 783 785 786 787 789 789 791 792 793 793 795 796 798
770 770 771 773 773 774 775 775 777 777 778 779 779 779 780 780 779 779 779 780 779 779 778 778 778 778 777 777 777 778 780 780 781 783 785 787 788 789 790 792 793 794
768 768 769 770 770 771 772 773 774 775 775 776 776 777 777 777 777 777 777 777 776 775 775 774 773 773 773 773 772 772 773 775 776 778 779 781 783 784 786 788 790 792
765 766 767 768 769 770 770 771 772 772 773 774 774 774 774 774 774 774 774 774 773 773 772 770 769 769 768 768 767 766 767 769 771 772 774 775 777 779 781 783 786 789
763 764 765 766 767 768 768 769 770 770 771 771 772 772 772 771 771 771 771 770 770 770 769 767 765 764 764 763 762 761 761 763 765 767 769 770 772 775 777 780 782 785
762 764 765 765 766 766 767 768 768 768 769 769 769 769 769 769 768 768 768 768 767 767 766 764 762 760 759 758 757 756 756 756 758 762 765 767 769 772 775 778 780 782
762 763 764 765 765 765 766 766 766 767 767 767 767 767 767 767 767 766 766 766 765 764 763 762 759 756 755 754 753 752 752 752 753 756 760 763 766 769 772 774 776 778
761 762 763 763 764 764 764 764 765 766 766 766 766 765 765 765 765 765 764 764 763 762 761 759 757 754 753 751 750 750 749 749 751 753 756 759 762 765 767 769 771 775
761 761 761 761 762 762 763 763 764 764 765 764 764 764 764 763 763 763 762 761 761 760 758 757 755 752 750 749 748 747 747 747 749 751 753 756 759 761 763 765 768 771
Wind_Speed
26 26 20 15 19 26 27 26 27 28 28 28 27 27 27 26 25 25 27 27 27 27 29 27 23 23 24 21 19 23 22 21 22 21 20 20 20 18 17 16 14 14
26 25 22 16 17 22 25 26 26 27 28 28 28 27 26 26 25 25 27 27 26 26 28 29 26 23 24 23 21 23 23 23 22 21 21 21 21 20 19 18 16 14
27 25 23 19 17 19 23 25 25 25 26 27 28 27 27 27 26 26 27 28 27 26 26 29 29 25 24 25 25 24 24 24 24 22 22 22 22 21 21 20 17 15
27 26 25 22 19 18 20 23 25 25 24 25 26 27 28 27 27 27 28 29 29 28 26 27 30 29 26 26 27 27 25 25 24 23 22 22 22 22 22 21 19 17
27 27 26 24 21 19 19 22 24 25 25 24 24 25 27 27 27 27 29 29 30 29 28 27 30 31 29 27 28 29 28 27 26 24 24 23 23 22 22 22 21 19
26 26 26 25 23 21 21 22 23 24 25 25 24 24 25 26 25 26 28 29 29 29 30 29 30 31 31 30 30 30 30 29 28 27 26 26 25 23 22 23 24 22
26 26 25 25 25 24 23 23 23 23 24 25 25 26 26 26 26 25 26 28 28 27 28 30 31 32 32 31 32 32 31 31 30 29 29 28 27 25 24 24 25 24
25 25 24 24 25 25 24 24 24 23 23 23 24 26 26 27 27 26 26 26 27 25 25 28 31 33 33 32 32 33 33 32 31 30 30 30 29 28 27 26 26 26
22 22 23 23 24 25 25 25 25 25 24 24 24 24 25 26 26 27 26 26 26 26 24 24 28 32 34 34 33 33 33 33 32 31 31 31 31 30 29 27 27 27
21 21 22 23 24 25 26 26 26 26 26 26 26 25 25 25 25 25 26 26 27 27 25 23 25 30 33 35 35 34 34 34 33 32 33 33 32 32 31 29 28 28
20 21 21 23 25 26 27 27 27 27 27 27 27 26 25 25 25 25 26 27 28 28 27 25 24 27 31 33 35 35 35 35 35 34 34 34 33 33 33 31 30 30
20 21 22 23 25 26 27 27 27 28 28 27 26 25 25 25 25 26 26 27 29 30 30 28 26 26 28 30 33 34 35 35 36 36 35 35 34 34 34 33 32 32
21 23 24 25 25 25 25 25 26 27 27 26 25 24 24 25 26 26 27 27 28 29 31 32 31 30 29 29 30 32 33 32 33 35 35 35 35 35 35 34 34 33
22 23 24 24 25 25 25 25 25 25 25 25 25 24 25 25 25 26 26 27 28 29 31 32 33 33 33 32 30 30 31 32 31 31 32 34 35 36 35 34 34 34
22 22 21 22 22 24 24 24 24 24 24 25 25 25 25 25 25 25 26 27 28 30 31 32 33 34 35 35 34 31 31 33 32 30 30 31 32 34 35 35 35 35
21 20 20 19 20 21 23 24 23 23 23 24 24 23 23 24 24 25 26 27 28 29 30 31 32 34 35 35 36 35 33 33 33 32 33 31 28 29 32 35 36 36
21 20 20 20 19 19 20 22 22 22 22 22 21 21 22 23 24 25 26 27 27 28 29 30 32 34 35 35 36 37 35 34 35 35 35 34 31 30 30 33 36 36
22 21 21 20 19 17 18 20 21 21 21 21 22 22 23 24 25 26 27 28 28 29 30 31 33 34 35 36 37 37 36 37 39 39 36 35 36 35 32 33 36 37
20 20 20 19 18 17 17 18 19 20 21 21 22 23 24 26 27 28 28 29 29 30 31 33 34 35 35 37 38 39 39 38 39 41 39 36 37 38 36 33 33 35
18 19 19 19 19 18 18 19 20 21 21 22 22 23 24 25 27 27 28 29 30 31 32 33 35 36 36 37 40 41 42 40 39 41 41 39 38 38 38 34 30 31
19 19 19 20 20 20 21 21 22 22 22 22 22 22 23 24 25 26 27 29 29 30 31 33 35 35 35 36 38 41 43 42 41 40 40 40 39 37 36 37 34 31
20 20 20 21 21 21 22 22 22 22 22 21 21 21 22 23 24 26 26 27 28 29 29 31 33 34 34 33 34 39 43 43 41 40 38 38 39 36 34 36 37 34
22 21 21 21 21 21 21 22 22 22 21 20 20 22 23 23 24 25 25 25 26 27 27 29 32 33 32 32 30 33 38 40 39 37 36 36 38 37 35 34 34 35
21 21 21 21 20 20 20 21 21 20 20 19 20 22 22 23 23 23 23 24 24 25 26 26 28 29 28 28 27 27 30 34 36 36 34 34 34 33 35 35 31 30
21 20 20 19 19 20 20 20 19 18 19 18 19 20 20 21 21 21 23 23 22 24 23 22 24 25 25 25 25 24 25 29 33 34 33 33 32 30 32 35 32 27
21 20 20 18 18 19 18 17 16 17 18 18 18 18 19 19 19 19 21 22 21 22 22 20 20 21 22 23 23 23 25 29 32 32 30 30 33 32 30 31 34 31
Wind_Direction
212 211 212 218 215 209 205 205 205 203 204 205 206 206 203 204 204 204 206 208 208 209 211 214 218 217 216 219 218 215 220 224 224 228 227 225 223 221 221 222 223 223
214 213 215 217 215 211 210 208 206 206 207 208 209 210 209 208 209 207 208 210 211 212 214 214 216 217 218 220 219 216 221 224 222 223 225 225 225 222 222 225 225 225
214 212 215 217 216 213 213 211 209 209 210 211 212 213 212 212 212 211 212 213 215 216 217 217 218 219 221 223 220 217 220 221 220 221 223 225 228 225 224 227 229 229
216 214 216 219 220 217 214 213 212 212 212 212 212 214 215 214 213 213 212 213 216 218 219 219 219 220 223 224 220 218 219 220 221 221 222 225 227 228 228 229 230 231
219 218 219 222 224 223 219 216 215 214 215 215 213 212 213 213 213 214 214 214 216 218 220 220 219 220 224 226 223 221 220 221 221 221 222 225 226 228 232 232 230 230
221 222 222 224 227 227 226 224 222 219 218 218 216 214 213 213 213 214 215 215 216 219 220 220 220 220 223 226 224 224 224 223 223 222 223 227 227 228 232 234 232 230
224 226 226 227 228 231 231 231 231 229 225 224 223 223 221 219 218 218 218 217 217 220 221 221 221 222 223 225 224 225 227 227 227 225 225 227 228 228 230 233 233 232
226 228 230 230 230 231 232 234 236 237 235 233 231 230 229 227 226 227 227 225 222 224 226 225 224 224 224 224 224 226 227 228 229 227 226 227 227 228 229 230 233 233
230 231 232 233 233 232 232 234 237 240 241 240 239 238 236 235 234 233 235 235 232 231 234 233 228 226 225 224 224 226 227 229 229 228 227 226 226 227 227 229 231 232
236 236 235 235 235 234 233 234 236 240 243 244 244 244 241 240 240 240 239 240 239 237 237 239 234 228 226 225 225 225 228 229 229 228 227 227 226 226 225 226 228 228
239 239 238 238 238 238 237 237 238 241 244 246 247 248 247 245 244 244 243 242 243 240 238 240 239 232 227 225 225 226 227 229 228 227 227 227 227 225 224 224 224 226
239 239 240 240 241 242 242 241 241 243 245 247 249 250 250 250 247 246 246 245 244 243 240 239 240 236 230 225 225 224 225 227 227 226 227 228 227 225 225 225 225 226
241 240 241 242 243 244 244 244 242 243 244 247 250 251 251 251 250 249 248 247 247 246 245 243 241 240 237 230 226 223 222 224 225 226 226 226 227 227 226 227 226 227
244 246 246 246 246 245 245 245 243 242 244 247 249 250 250 251 252 252 252 251 251 251 250 248 246 244 242 238 234 228 222 221 222 225 226 226 226 227 227 227 227 227
242 244 246 246 246 246 246 245 243 243 244 245 246 247 250 252 253 254 254 254 253 253 252 251 249 247 244 242 242 238 230 224 221 222 225 226 227 227 227 227 227 228
241 239 239 240 241 243 244 243 243 243 243 243 244 246 249 252 254 255 256 256 255 254 251 250 250 250 248 247 246 244 239 231 227 226 226 227 228 228 227 227 227 227
240 239 235 234 236 239 240 241 240 239 240 242 243 245 249 253 256 257 258 259 258 256 253 251 251 252 253 252 250 247 241 233 231 231 230 227 227 226 226 228 228 227
240 237 232 233 237 239 238 237 235 236 240 244 247 249 252 254 256 257 259 261 260 258 257 256 255 255 255 254 253 249 242 234 232 233 231 227 225 224 225 227 227 226
232 230 229 234 239 240 238 236 236 240 246 251 255 258 259 259 259 260 261 262 262 261 261 260 260 260 257 255 254 250 243 234 227 226 227 226 223 222 223 226 227 224
229 231 235 240 243 245 246 244 245 249 254 259 261 263 264 264 264 264 264 264 264 263 264 264 264 263 261 258 255 251 244 234 223 219 222 224 224 222 222 224 226 224
235 238 241 245 247 248 249 248 250 254 258 260 260 260 262 263 265 266 266 266 267 268 268 269 269 268 265 262 258 253 246 235 224 219 220 222 223 223 223 224 223 223
239 240 242 245 245 244 245 247 251 255 258 258 258 259 261 262 264 266 267 269 272 274 274 275 275 274 270 265 262 257 247 234 223 220 218 218 220 223 226 227 225 222
241 243 244 244 243 242 244 247 250 253 256 257 259 261 261 262 265 267 269 273 276 279 281 282 282 280 273 267 265 258 244 227 217 216 216 213 215 217 220 222 221 220
242 244 244 246 249 250 249 248 248 251 254 257 259 260 261 265 270 272 274 276 278 282 286 289 287 284 277 268 263 259 244 224 211 210 211 210 208 209 213 214 214 218
242 243 245 248 253 253 251 249 249 252 256 258 258 260 265 270 274 276 278 279 282 285 290 293 292 288 282 271 262 256 245 225 210 205 207 209 208 206 210 213 214 217
242 241 242 244 247 251 254 255 255 256 258 258 259 262 268 273 274 276 279 281 286 290 293 297 297 292 285 276 265 256 243 224 210 204 203 205 208 207 205 206 209 210